Temp
-11 -11 -11 -11 -11 -11 -11 -11 -12 -11 -11 -11 -12 -12 -12 -12 -12 -13 -13 -13 -13 -13 -12 -13 -13 -13 -13 -13 -13 -13 -14 -13 -13 -13 -13 -13 -12 -12 -12 -11 -11 -11 -11
-11 -11 -11 -11 -11 -11 -11 -11 -12 -11 -11 -12 -12 -12 -12 -12 -12 -13 -12 -12 -13 -12 -12 -13 -12 -13 -13 -14 -13 -14 -13 -13 -13 -13 -12 -12 -13 -12 -12 -11 -11 -11 -11
-11 -11 -11 -11 -11 -11 -11 -11 -12 -12 -11 -12 -12 -12 -12 -12 -12 -12 -13 -13 -13 -12 -12 -12 -12 -12 -12 -12 -12 -13 -13 -13 -13 -13 -13 -12 -12 -11 -11 -11 -11 -11 -11
-11 -11 -11 -11 -11 -11 -11 -11 -12 -12 -11 -12 -12 -12 -12 -12 -12 -12 -13 -13 -13 -12 -12 -12 -12 -12 -12 -12 -12 -12 -12 -11 -12 -12 -11 -12 -11 -11 -11 -11 -12 -12 -12
-11 -11 -11 -11 -11 -11 -11 -11 -11 -12 -12 -12 -12 -12 -12 -12 -12 -12 -12 -13 -13 -12 -12 -12 -12 -12 -12 -12 -12 -11 -11 -11 -11 -11 -11 -11 -11 -11 -11 -12 -12 -12 -12
-11 -11 -11 -11 -11 -11 -11 -11 -11 -12 -12 -12 -12 -12 -12 -12 -12 -12 -12 -12 -13 -13 -12 -12 -12 -12 -12 -12 -12 -11 -11 -11 -11 -11 -11 -11 -11 -11 -11 -11 -12 -12 -12
-11 -11 -11 -11 -12 -11 -11 -11 -11 -11 -12 -12 -12 -11 -12 -12 -12 -12 -11 -12 -12 -12 -12 -12 -12 -12 -12 -12 -11 -11 -11 -11 -11 -11 -11 -11 -11 -11 -11 -11 -12 -12 -12
-11 -11 -11 -11 -12 -12 -12 -11 -11 -11 -12 -12 -12 -12 -11 -12 -12 -12 -12 -12 -12 -12 -11 -11 -11 -12 -12 -12 -11 -11 -11 -10 -11 -11 -11 -12 -11 -12 -12 -12 -12 -12 -12
-11 -11 -11 -11 -11 -11 -12 -11 -11 -11 -11 -11 -12 -11 -11 -12 -12 -12 -11 -12 -12 -11 -11 -11 -11 -11 -11 -11 -11 -11 -11 -11 -11 -11 -11 -11 -11 -12 -12 -12 -12 -12 -12
-11 -11 -11 -11 -11 -11 -12 -12 -12 -11 -11 -11 -11 -11 -12 -12 -12 -12 -12 -12 -12 -12 -12 -11 -11 -11 -11 -11 -10 -11 -11 -12 -12 -12 -11 -12 -12 -13 -13 -13 -12 -13 -14
-11 -11 -11 -11 -11 -11 -12 -12 -12 -11 -11 -11 -11 -11 -12 -12 -12 -12 -12 -11 -11 -11 -11 -11 -11 -11 -11 -11 -11 -11 -12 -12 -12 -12 -12 -12 -12 -12 -13 -13 -13 -13 -13
-11 -11 -11 -11 -12 -12 -11 -12 -12 -12 -12 -12 -11 -11 -12 -12 -12 -12 -11 -11 -12 -11 -11 -11 -11 -11 -11 -11 -12 -12 -12 -12 -12 -12 -13 -13 -13 -13 -13 -13 -13 -13 -13
-11 -11 -11 -11 -12 -12 -12 -12 -12 -12 -12 -12 -12 -12 -12 -11 -11 -11 -11 -11 -11 -11 -11 -12 -12 -12 -12 -12 -12 -12 -12 -13 -13 -13 -13 -12 -13 -13 -13 -13 -13 -13 -13
-11 -12 -12 -12 -12 -12 -12 -12 -12 -12 -12 -12 -12 -12 -12 -12 -12 -13 -13 -13 -12 -12 -12 -12 -12 -12 -12 -12 -12 -12 -12 -12 -12 -12 -12 -13 -13 -13 -13 -13 -13 -14 -13
-12 -12 -12 -12 -12 -12 -12 -12 -12 -12 -12 -12 -12 -12 -12 -12 -12 -12 -13 -13 -12 -12 -12 -12 -12 -12 -12 -13 -12 -12 -12 -12 -12 -13 -13 -13 -13 -14 -14 -14 -13 -13 -13
-11 -11 -12 -12 -12 -12 -12 -12 -12 -12 -12 -12 -12 -12 -12 -12 -12 -12 -12 -12 -12 -12 -12 -12 -12 -12 -12 -12 -12 -13 -13 -13 -13 -13 -13 -14 -14 -14 -13 -13 -13 -13 -13
-11 -11 -11 -12 -12 -12 -12 -12 -12 -12 -12 -12 -12 -12 -12 -12 -13 -13 -13 -13 -13 -13 -13 -13 -13 -13 -13 -13 -13 -13 -13 -13 -14 -14 -14 -13 -13 -14 -14 -14 -14 -14 -14
-11 -11 -11 -11 -12 -12 -12 -12 -12 -12 -13 -13 -13 -12 -12 -12 -12 -12 -13 -13 -13 -13 -13 -13 -13 -13 -13 -13 -14 -13 -14 -14 -14 -14 -14 -14 -14 -14 -14 -14 -14 -14 -14
-11 -11 -11 -11 -11 -12 -12 -12 -12 -12 -13 -13 -13 -13 -13 -12 -12 -12 -12 -12 -12 -12 -12 -12 -13 -13 -13 -13 -13 -13 -14 -14 -14 -14 -14 -14 -14 -14 -14 -14 -13 -13 -13
-11 -11 -11 -11 -11 -11 -11 -12 -12 -12 -12 -13 -13 -13 -13 -13 -12 -12 -12 -12 -12 -12 -12 -12 -12 -13 -13 -13 -13 -13 -13 -14 -13 -14 -14 -14 -14 -14 -14 -13 -13 -13 -13
-11 -11 -11 -11 -11 -11 -11 -11 -11 -12 -12 -12 -12 -12 -13 -13 -13 -13 -13 -12 -12 -12 -12 -12 -13 -13 -13 -13 -13 -13 -13 -14 -14 -14 -14 -14 -13 -13 -13 -13 -13 -13 -13
-12 -11 -11 -11 -11 -11 -11 -11 -11 -11 -11 -12 -12 -12 -12 -12 -12 -12 -13 -12 -12 -12 -12 -12 -13 -13 -13 -13 -13 -13 -13 -14 -14 -14 -13 -13 -13 -13 -13 -13 -13 -13 -13
-12 -12 -11 -11 -11 -11 -11 -11 -11 -11 -11 -11 -11 -12 -12 -12 -12 -12 -12 -12 -12 -12 -12 -12 -12 -13 -13 -13 -13 -13 -13 -14 -13 -13 -13 -13 -13 -13 -13 -13 -13 -14 -13
-12 -12 -12 -12 -12 -11 -11 -11 -11 -11 -11 -11 -11 -11 -12 -12 -12 -12 -12 -12 -12 -12 -12 -12 -12 -12 -13 -13 -13 -13 -13 -13 -13 -13 -13 -13 -13 -13 -13 -13 -13 -14 -14
-12 -13 -12 -12 -12 -12 -11 -11 -11 -11 -11 -11 -11 -11 -11 -12 -12 -12 -12 -12 -12 -12 -12 -12 -12 -12 -12 -12 -12 -13 -13 -12 -13 -13 -13 -13 -13 -13 -13 -14 -14 -14 -14
-13 -13 -13 -12 -12 -12 -12 -11 -12 -12 -11 -11 -11 -11 -11 -12 -12 -12 -12 -12 -12 -12 -12 -12 -12 -12 -12 -12 -12 -12 -12 -12 -13 -13 -13 -13 -13 -13 -14 -14 -14 -14 -15
Height
5727 5725 5722 5718 5716 5713 5711 5708 5705 5702 5700 5699 5699 5699 5698 5698 5698 5698 5699 5698 5697 5697 5696 5696 5696 5698 5700 5702 5704 5707 5711 5714 5718 5724 5729 5735 5740 5745 5750 5753 5759 5763 5768
5724 5722 5719 5717 5715 5713 5710 5707 5704 5702 5701 5699 5699 5700 5700 5700 5700 5701 5700 5700 5698 5697 5697 5697 5696 5697 5699 5702 5705 5708 5711 5715 5719 5724 5730 5734 5739 5742 5747 5752 5757 5762 5767
5721 5719 5717 5715 5715 5713 5710 5707 5705 5703 5702 5701 5701 5701 5702 5702 5702 5702 5701 5701 5699 5699 5699 5699 5698 5701 5702 5703 5706 5707 5710 5715 5720 5724 5729 5734 5738 5743 5747 5751 5756 5762 5769
5719 5718 5716 5714 5714 5712 5710 5707 5705 5703 5703 5702 5702 5702 5703 5704 5704 5704 5704 5702 5701 5701 5701 5701 5702 5704 5705 5706 5708 5710 5711 5715 5720 5724 5728 5733 5738 5743 5749 5754 5759 5765 5770
5717 5716 5715 5714 5713 5711 5710 5707 5705 5703 5702 5701 5702 5703 5704 5705 5706 5707 5707 5706 5705 5704 5705 5706 5707 5708 5709 5710 5711 5712 5715 5718 5721 5725 5730 5736 5741 5745 5751 5756 5760 5765 5770
5717 5716 5714 5712 5711 5710 5709 5706 5705 5702 5700 5700 5702 5704 5705 5706 5708 5709 5710 5710 5709 5707 5707 5709 5710 5712 5712 5713 5715 5716 5720 5723 5727 5730 5736 5740 5744 5747 5751 5757 5762 5767 5772
5716 5715 5713 5713 5711 5709 5707 5706 5705 5703 5701 5699 5701 5703 5705 5707 5709 5711 5712 5713 5713 5712 5712 5713 5714 5715 5716 5717 5719 5721 5725 5727 5730 5734 5739 5742 5747 5752 5756 5760 5765 5770 5774
5716 5716 5714 5714 5712 5710 5708 5706 5705 5703 5702 5700 5701 5703 5705 5708 5710 5712 5713 5715 5716 5715 5716 5717 5718 5719 5720 5722 5723 5726 5730 5732 5735 5738 5742 5746 5751 5755 5759 5764 5768 5772 5775
5717 5716 5716 5716 5714 5712 5709 5708 5706 5704 5701 5700 5700 5702 5705 5708 5710 5712 5714 5716 5717 5719 5719 5720 5721 5723 5724 5725 5727 5729 5732 5734 5738 5742 5745 5749 5754 5758 5763 5768 5771 5774 5776
5718 5717 5716 5717 5716 5714 5712 5710 5708 5705 5701 5699 5699 5703 5706 5708 5710 5713 5714 5717 5719 5720 5721 5722 5724 5725 5726 5727 5729 5732 5735 5738 5741 5745 5748 5752 5757 5761 5766 5770 5772 5775 5779
5720 5719 5718 5718 5719 5717 5715 5713 5711 5707 5704 5703 5703 5705 5708 5710 5713 5715 5717 5719 5721 5722 5723 5724 5725 5725 5727 5729 5732 5735 5738 5741 5744 5748 5751 5756 5760 5764 5768 5770 5773 5776 5779
5721 5721 5720 5720 5720 5719 5718 5717 5716 5713 5710 5709 5709 5710 5711 5713 5715 5717 5719 5721 5722 5724 5725 5725 5726 5727 5729 5732 5735 5739 5742 5745 5748 5752 5755 5760 5763 5766 5769 5771 5774 5777 5778
5721 5722 5722 5722 5722 5722 5721 5721 5720 5720 5717 5713 5714 5716 5717 5717 5718 5719 5719 5721 5725 5728 5729 5729 5730 5731 5733 5735 5739 5742 5745 5748 5752 5756 5758 5761 5765 5768 5771 5772 5774 5776 5776
5723 5723 5723 5724 5724 5725 5725 5725 5725 5725 5724 5723 5723 5723 5724 5724 5724 5724 5724 5726 5729 5731 5731 5734 5735 5738 5740 5742 5745 5747 5750 5752 5756 5759 5762 5765 5768 5771 5771 5772 5774 5774 5774
5723 5724 5725 5726 5727 5727 5728 5729 5730 5730 5729 5730 5730 5731 5731 5732 5733 5733 5735 5736 5737 5739 5740 5741 5742 5744 5746 5748 5750 5752 5754 5756 5760 5763 5765 5766 5768 5770 5770 5771 5771 5770 5768
5724 5725 5726 5728 5730 5731 5732 5733 5734 5734 5735 5735 5736 5736 5737 5739 5740 5740 5741 5742 5743 5744 5745 5747 5748 5749 5750 5752 5754 5757 5759 5761 5763 5764 5766 5767 5767 5769 5769 5769 5768 5767 5767
5724 5726 5728 5729 5731 5733 5734 5736 5737 5737 5738 5739 5740 5740 5740 5741 5743 5744 5745 5746 5747 5748 5749 5750 5751 5752 5753 5755 5756 5757 5759 5761 5763 5764 5765 5765 5767 5768 5768 5767 5765 5763 5762
5724 5726 5728 5729 5731 5733 5735 5737 5739 5740 5741 5742 5742 5743 5744 5745 5746 5747 5748 5749 5750 5751 5752 5752 5753 5754 5755 5756 5758 5759 5761 5762 5764 5765 5765 5765 5766 5765 5763 5762 5761 5759 5757
5722 5724 5726 5728 5730 5732 5734 5736 5739 5741 5742 5743 5743 5744 5746 5747 5747 5748 5749 5750 5751 5752 5752 5753 5754 5755 5757 5758 5759 5760 5761 5762 5762 5761 5761 5762 5761 5760 5759 5757 5756 5754 5750
5720 5722 5725 5727 5729 5731 5733 5735 5737 5739 5741 5743 5743 5744 5745 5746 5747 5749 5750 5751 5752 5752 5753 5753 5754 5755 5756 5757 5758 5759 5759 5758 5759 5758 5757 5756 5755 5754 5753 5751 5749 5747 5745
5717 5720 5722 5724 5726 5728 5730 5732 5734 5737 5739 5740 5741 5743 5744 5745 5746 5747 5748 5749 5751 5751 5752 5752 5753 5753 5754 5755 5755 5756 5756 5755 5754 5753 5753 5751 5751 5750 5748 5747 5744 5744 5739
5713 5716 5718 5721 5722 5724 5726 5728 5730 5732 5735 5737 5739 5740 5740 5742 5743 5744 5745 5746 5747 5748 5749 5750 5751 5751 5751 5751 5751 5751 5751 5750 5750 5749 5748 5748 5747 5745 5743 5741 5737 5734 5731
5708 5711 5714 5716 5718 5720 5722 5724 5726 5728 5730 5732 5733 5736 5738 5738 5740 5741 5741 5742 5743 5744 5745 5745 5746 5746 5746 5746 5746 5745 5746 5745 5744 5744 5744 5742 5740 5738 5736 5734 5731 5728 5724
5700 5704 5708 5711 5712 5715 5717 5719 5721 5723 5725 5726 5728 5730 5732 5733 5734 5736 5737 5737 5738 5738 5739 5740 5741 5741 5740 5740 5740 5740 5739 5738 5737 5736 5736 5734 5733 5732 5729 5726 5725 5721 5717
5695 5698 5700 5706 5708 5708 5711 5713 5715 5717 5719 5720 5722 5724 5726 5728 5729 5729 5731 5732 5732 5733 5733 5734 5734 5734 5733 5734 5734 5733 5733 5732 5731 5728 5726 5726 5727 5726 5723 5719 5715 5713 5712
5688 5691 5693 5695 5700 5703 5704 5707 5709 5710 5712 5713 5715 5716 5717 5721 5721 5722 5723 5724 5725 5726 5727 5727 5727 5727 5726 5726 5725 5724 5723 5723 5722 5722 5720 5717 5714 5713 5712 5709 5705 5704 5702
Wind_Speed
16 16 20 16 15 11 7 7 6 5 0 4 2 1 1 4 7 6 5 7 3 2 5 7 10 9 8 11 9 9 13 17 19 20 20 22 22 25 17 17 24 26 19
14 15 16 14 10 6 5 5 5 4 2 3 3 4 6 6 4 5 5 5 3 3 3 4 3 13 10 11 11 11 14 17 19 20 21 20 20 18 15 19 20 20 13
13 14 14 10 8 3 4 7 6 3 2 5 6 4 3 4 4 4 4 6 4 3 5 4 6 6 4 4 7 12 16 20 19 22 23 20 13 15 16 19 16 11 19
12 12 11 9 10 8 7 8 8 5 4 5 5 6 5 3 3 4 6 4 10 12 10 9 9 6 8 7 7 5 11 13 20 17 16 18 18 18 17 14 16 20 17
11 11 9 9 9 8 7 7 8 7 3 8 6 5 5 5 4 9 8 11 8 11 12 11 10 13 12 9 11 16 18 19 18 22 22 24 20 20 19 18 15 21 22
9 8 8 10 12 7 6 6 8 6 2 6 10 7 5 6 9 11 7 9 6 10 15 14 11 12 12 11 17 18 21 22 25 26 21 18 18 16 14 15 20 21 18
4 4 6 5 3 2 2 4 4 7 7 5 9 11 6 8 12 8 5 6 6 8 11 13 13 12 12 15 20 21 21 21 21 19 15 14 17 15 17 17 20 19 17
2 4 6 5 6 5 4 3 2 5 5 2 9 12 12 8 8 8 9 7 6 7 10 10 11 12 13 17 18 15 14 18 16 15 18 16 19 17 18 19 18 14 11
1 4 4 4 6 9 9 7 4 4 5 4 10 12 13 12 10 9 11 10 5 5 10 10 10 10 12 13 16 16 13 13 13 16 17 18 17 15 16 18 13 9 10
2 4 6 5 6 9 10 12 10 7 8 3 11 12 10 12 11 9 10 11 7 7 11 7 6 6 12 13 11 15 15 14 11 14 13 12 15 12 15 13 9 11 15
4 4 6 5 6 8 11 14 14 17 11 13 16 12 12 14 12 11 10 9 7 8 6 3 1 6 11 10 14 13 16 17 18 14 13 15 13 14 9 10 18 11 3
6 4 3 3 5 8 8 10 13 16 19 9 16 17 14 14 12 11 11 10 9 9 4 5 8 10 15 16 14 16 18 15 12 10 18 21 20 18 13 9 6 2 2
6 5 4 3 4 7 8 9 12 15 19 20 16 14 12 10 9 8 7 10 11 10 4 15 19 22 24 27 30 29 27 26 26 24 18 15 12 10 8 6 5 5 6
6 6 6 6 8 9 11 11 13 15 17 23 23 23 26 28 26 30 32 33 29 28 29 26 26 25 23 23 22 20 18 17 16 13 12 11 9 7 7 5 3 4 6
7 8 9 9 10 12 14 16 18 19 21 20 20 20 21 20 20 22 22 22 21 20 17 16 15 14 13 14 14 14 13 12 10 9 8 8 8 7 7 6 7 10 15
7 9 11 12 10 11 13 13 13 13 14 15 15 16 17 18 17 17 17 17 15 14 13 12 11 10 10 9 9 9 8 8 7 7 9 8 8 6 7 9 12 15 15
9 9 9 11 13 12 11 9 9 8 9 11 12 11 11 14 17 17 17 15 14 12 11 10 9 8 7 6 6 7 8 8 8 7 5 3 3 4 7 10 12 16 15
10 9 10 10 11 12 12 9 6 5 4 6 7 8 10 10 10 11 10 10 10 10 10 8 7 8 8 8 9 8 7 5 3 1 2 3 6 9 12 14 15 17 19
13 12 11 11 11 11 12 11 9 7 5 3 3 2 3 4 4 5 5 4 4 4 5 6 7 6 7 7 5 3 1 2 3 5 7 8 10 12 14 16 17 20 24
16 15 15 13 12 12 12 12 12 11 9 8 8 6 4 3 3 3 4 2 1 2 2 2 1 2 4 2 1 3 5 7 7 8 9 11 12 14 15 17 20 24 25
16 19 17 15 15 15 15 15 14 14 13 13 13 11 12 10 7 5 6 7 7 6 5 4 3 5 5 7 8 9 9 10 11 12 14 16 16 18 20 23 26 25 31
20 19 19 19 19 18 17 18 18 17 16 17 17 16 16 13 13 13 13 13 12 11 11 10 9 9 9 11 12 13 14 15 16 16 16 17 19 21 23 26 29 31 33
23 23 22 21 20 20 20 20 19 20 19 18 18 17 19 20 17 18 19 20 18 17 17 15 15 15 14 15 16 16 16 18 19 19 19 22 24 26 27 30 32 32 35
27 25 22 23 24 22 22 21 21 21 22 22 22 19 19 22 23 21 22 22 22 22 22 21 21 22 21 20 21 19 20 22 24 23 23 25 26 29 32 35 34 35 36
29 28 29 25 26 27 24 24 24 23 23 22 22 22 20 21 24 25 25 26 25 25 25 24 24 25 26 27 28 28 27 27 27 29 32 33 33 33 35 37 39 39 37
33 32 32 31 26 25 27 24 25 28 27 26 25 25 25 23 23 24 26 26 27 29 28 30 31 31 31 32 33 32 31 30 30 31 33 36 35 36 38 40 40 40 37
Wind_Direction
295 298 307 309 309 304 305 316 346 354 219 138 151 333 126 94 94 89 37 29 92 86 194 199 178 125 141 158 140 165 171 176 179 184 192 198 208 221 201 189 195 191 202
293 307 307 310 294 299 327 338 353 5 233 167 132 130 130 110 91 47 46 35 38 251 141 66 102 151 167 160 164 175 182 183 187 189 192 202 215 203 198 186 191 183 203
297 308 306 298 275 266 357 2 344 345 270 184 154 146 130 79 68 59 38 345 12 220 239 239 166 142 124 104 151 194 197 191 195 207 208 204 208 176 173 165 146 153 190
300 303 294 290 265 268 303 334 338 319 220 218 177 172 170 86 93 71 3 37 95 108 106 102 90 99 95 106 124 122 159 180 195 192 187 183 170 169 162 150 164 174 170
299 300 299 278 280 283 296 325 334 308 292 223 214 206 160 144 125 86 43 78 75 94 111 106 108 92 100 113 103 124 121 123 132 136 139 151 150 155 150 158 176 171 173
301 306 309 310 269 285 289 310 335 345 310 223 200 182 166 172 139 103 95 84 65 62 97 116 108 100 112 111 112 117 115 120 121 120 129 136 141 146 145 159 156 153 160
328 8 14 325 352 14 304 327 358 8 17 204 196 183 180 171 153 145 155 129 83 81 104 120 113 108 108 113 118 115 122 119 122 122 123 133 140 139 153 160 162 161 161
25 58 45 28 43 41 20 355 315 352 353 144 191 180 190 177 175 165 171 152 129 110 122 131 127 126 120 116 135 134 132 122 131 127 133 147 150 152 150 164 163 165 182
86 87 77 48 49 42 40 37 22 1 325 323 193 173 181 180 172 169 168 169 163 144 139 143 139 129 132 127 135 144 139 129 135 141 140 143 142 140 152 160 168 192 226
107 95 84 62 67 54 52 52 47 29 346 6 150 152 161 163 162 163 169 168 171 167 145 124 132 123 150 137 128 135 135 135 147 141 124 123 145 148 164 175 193 129 92
133 99 83 82 88 71 62 55 49 40 51 109 122 132 143 154 155 142 145 152 167 160 149 143 77 144 139 148 139 133 141 139 139 140 138 167 178 179 173 134 76 71 109
140 115 99 67 72 89 72 71 60 53 55 116 120 119 125 143 147 147 150 149 145 129 105 134 129 124 124 124 128 136 136 142 150 167 133 121 109 90 86 97 114 138 312
153 124 111 104 97 100 96 80 76 68 63 73 127 107 108 111 126 133 147 164 154 162 188 108 108 110 113 108 104 100 99 102 99 95 105 110 111 120 119 101 66 15 356
175 142 126 113 105 103 105 100 93 85 81 84 91 86 86 94 99 97 101 103 106 107 105 104 104 106 104 102 103 104 109 112 116 119 115 111 107 94 82 68 58 19 350
179 162 142 134 122 116 114 110 105 100 94 91 90 91 95 93 90 92 98 105 107 106 104 100 100 98 102 107 107 111 113 108 107 110 105 102 98 85 70 59 6 342 337
182 181 162 154 145 133 126 121 109 98 92 93 96 100 101 100 99 99 100 100 101 101 103 106 107 107 110 113 112 105 97 99 100 97 93 80 61 39 8 347 339 335 332
192 188 185 172 166 160 155 144 129 109 94 88 89 97 104 106 105 99 96 97 98 100 102 102 102 109 121 118 102 99 102 102 101 95 84 51 6 332 321 322 319 327 340
203 194 195 195 187 183 183 184 178 156 120 99 96 97 106 116 112 108 102 98 93 88 82 92 119 110 103 105 104 100 95 100 103 31 312 318 341 336 328 327 330 333 332
218 209 203 202 203 200 199 201 206 209 206 184 171 150 120 119 131 132 124 112 87 73 69 72 81 106 119 124 110 114 81 11 1 333 329 329 322 315 317 320 320 322 324
225 223 217 220 217 216 215 211 208 210 214 218 235 239 237 242 238 201 186 174 122 83 65 49 90 141 131 131 356 341 308 297 296 298 302 307 313 314 314 313 314 316 318
229 231 231 227 228 232 230 230 231 229 225 225 232 242 252 254 261 262 237 233 232 239 257 252 243 251 259 264 271 286 300 299 297 297 305 312 316 314 311 313 313 316 312
239 239 238 238 241 236 237 241 242 240 242 243 243 247 257 264 264 262 262 260 255 259 261 265 262 275 284 281 283 287 290 294 292 290 294 298 302 303 303 307 310 313 311
238 237 241 243 239 242 244 247 249 254 253 254 252 249 253 263 262 267 272 274 271 271 268 266 265 268 266 263 269 274 276 279 279 283 286 290 299 304 301 301 307 308 307
237 235 230 238 246 242 245 249 252 253 256 260 263 259 257 262 266 268 272 277 280 279 277 277 277 281 280 270 268 273 279 281 282 282 281 285 292 298 301 303 305 304 306
236 243 245 232 239 252 248 248 253 253 255 258 262 265 266 267 271 273 273 276 280 282 280 278 278 279 279 280 284 286 289 287 284 285 289 295 302 304 302 300 301 303 311
236 239 241 245 236 242 255 254 250 254 253 255 257 259 262 260 267 273 278 279 280 282 282 281 282 281 281 282 283 282 282 283 286 287 288 290 292 294 297 298 298 303 308